| time (UTC) | temp F | wind direction | speed knots | gust knots | rain 1hr in | rain 24hr in | rain mn in | humidity % | barometer mb |
| 20260510153509 | 56 | 15 | 0.9 | 4.3 | 0.00 | 0.15 | 0.00 | 56 | 1017.2 |
| 20260510153036 | 56 | 49 | 0.9 | 3.5 | 0.00 | 0.15 | 0.00 | 52 | 1017.2 |
| 20260510152511 | 55 | 10 | 1.7 | 3.5 | 0.00 | 0.15 | 0.00 | 54 | 1017.2 |
| 20260510152015 | 55 | 42 | 0.9 | 3.5 | 0.00 | 0.15 | 0.00 | 55 | 1017.3 |
| 20260510151528 | 55 | 9 | 1.7 | 7.8 | 0.00 | 0.15 | 0.00 | 54 | 1017.1 |
| 20260510151012 | 55 | 352 | 2.6 | 7.8 | 0.00 | 0.15 | 0.00 | 53 | 1017.1 |
| 20260510150509 | 54 | 360 | 3.5 | 7.8 | 0.00 | 0.15 | 0.00 | 54 | 1017.0 |
| 20260510150024 | 54 | 11 | 1.7 | 4.3 | 0.00 | 0.15 | 0.00 | 57 | 1016.7 |
| 20260510145510 | 54 | 352 | 1.7 | 4.3 | 0.00 | 0.15 | 0.00 | 56 | 1016.7 |
| 20260510145009 | 54 | 42 | 1.7 | 4.3 | 0.00 | 0.15 | 0.00 | 58 | 1016.7 |
| 20260510144525 | 54 | 360 | 1.7 | 4.3 | 0.00 | 0.15 | 0.00 | 59 | 1016.7 |
| 20260510144009 | 54 | 64 | 1.7 | 4.3 | 0.00 | 0.15 | 0.00 | 62 | 1016.6 |
| 20260510143510 | 53 | 352 | 1.7 | 7.0 | 0.00 | 0.15 | 0.00 | 62 | 1016.6 |
| 20260510143024 | 53 | 36 | 2.6 | 5.2 | 0.00 | 0.15 | 0.00 | 61 | 1016.6 |
| 20260510142510 | 53 | 13 | 1.7 | 4.3 | 0.00 | 0.15 | 0.00 | 66 | 1016.5 |
| 20260510142012 | 53 | 32 | 0.9 | 5.2 | 0.00 | 0.15 | 0.00 | 64 | 1016.5 |
| 20260510141527 | 52 | 14 | 2.6 | 5.2 | 0.00 | 0.15 | 0.00 | 66 | 1016.5 |
| 20260510141010 | 52 | 5 | 2.6 | 5.2 | 0.00 | 0.15 | 0.00 | 70 | 1016.5 |
| 20260510140508 | 51 | 360 | 1.7 | 4.3 | 0.00 | 0.15 | 0.00 | 72 | 1016.5 |
| 20260510140022 | 51 | 360 | 1.7 | 6.1 | 0.00 | 0.15 | 0.00 | 72 | 1016.5 |
| 20260510135507 | 51 | 5 | 3.5 | 7.8 | 0.00 | 0.15 | 0.00 | 70 | 1016.4 |
| 20260510135009 | 51 | 360 | 2.6 | 7.8 | 0.00 | 0.15 | 0.00 | 74 | 1016.4 |
| 20260510134524 | 51 | 5 | 2.6 | 7.0 | 0.00 | 0.15 | 0.00 | 75 | 1016.4 |
| 20260510134015 | 50 | 360 | 2.6 | 7.0 | 0.00 | 0.15 | 0.00 | 78 | 1016.4 |
| 20260510133505 | 50 | 12 | 2.6 | 4.3 | 0.00 | 0.15 | 0.00 | 79 | 1016.3 |
| 20260510133005 | 49 | 42 | 0.9 | 2.6 | 0.00 | 0.15 | 0.00 | 81 | 1016.2 |
| 20260510132504 | 49 | 360 | 0.9 | 3.5 | 0.00 | 0.15 | 0.00 | 81 | 1016.1 |
| 20260510132010 | 49 | 5 | 0.9 | 6.1 | 0.00 | 0.15 | 0.00 | 82 | 1016.0 |
| 20260510131512 | 49 | 5 | 1.7 | 6.1 | 0.00 | 0.15 | 0.00 | 82 | 1015.8 |
| 20260510131011 | 49 | 352 | 0.9 | 3.5 | 0.00 | 0.15 | 0.00 | 83 | 1015.9 |
| 20260510130508 | 49 | 22 | 1.7 | 3.5 | 0.00 | 0.15 | 0.00 | 84 | 1015.8 |
| 20260510130018 | 48 | 352 | 1.7 | 3.5 | 0.00 | 0.15 | 0.00 | 84 | 1015.7 |
| 20260510125509 | 48 | 5 | 1.7 | 3.5 | 0.00 | 0.15 | 0.00 | 85 | 1015.6 |
| 20260510125013 | 48 | 352 | 1.7 | 5.2 | 0.00 | 0.15 | 0.00 | 85 | 1015.6 |
| 20260510124521 | 48 | 32 | 1.7 | 5.2 | 0.00 | 0.15 | 0.00 | 85 | 1015.4 |
| 20260510124008 | 48 | 360 | 0.9 | 3.5 | 0.00 | 0.15 | 0.00 | 85 | 1015.3 |
| 20260510123511 | 48 | 360 | 2.6 | 3.5 | 0.00 | 0.15 | 0.00 | 85 | 1015.3 |
| 20260510123025 | 48 | 5 | 0.9 | 5.2 | 0.00 | 0.15 | 0.00 | 86 | 1015.2 |
| 20260510122509 | 48 | 352 | 2.6 | 5.2 | 0.00 | 0.15 | 0.00 | 86 | 1015.1 |
| 20260510122007 | 48 | 360 | 0.9 | 3.5 | 0.00 | 0.15 | 0.00 | 87 | 1015.0 |
| 20260510121510 | 48 | 5 | 0.9 | 2.6 | 0.00 | 0.15 | 0.00 | 88 | 1014.8 |
| 20260510121009 | 48 | 12 | 0.0 | 1.7 | 0.00 | 0.15 | 0.00 | 88 | 1014.9 |
| 20260510120504 | 48 | 12 | 0.0 | 1.7 | 0.00 | 0.15 | 0.00 | 88 | 1014.7 |
| 20260510120012 | 48 | 12 | 0.0 | 0.0 | 0.00 | 0.15 | 0.00 | 88 | 1014.5 |
| 20260510115508 | 48 | 12 | 0.0 | 0.0 | 0.00 | 0.15 | 0.00 | 88 | 1014.5 |
| 20260510115008 | 47 | 12 | 0.0 | 0.0 | 0.00 | 0.15 | 0.00 | 88 | 1014.6 |
| 20260510114523 | 47 | 12 | 0.0 | 0.0 | 0.00 | 0.15 | 0.00 | 88 | 1014.4 |
| 20260510114008 | 47 | 12 | 0.0 | 0.0 | 0.00 | 0.15 | 0.00 | 88 | 1014.2 |
| 20260510113507 | 47 | 12 | 0.0 | 0.9 | 0.00 | 0.15 | 0.00 | 89 | 1014.0 |
| 20260510113034 | 47 | 12 | 0.0 | 0.9 | 0.00 | 0.15 | 0.00 | 88 | 1013.8 |
| 20260510112511 | 47 | 12 | 0.0 | 0.0 | 0.00 | 0.15 | 0.00 | 88 | 1013.7 |
| 20260510112009 | 47 | 12 | 0.0 | 0.0 | 0.00 | 0.15 | 0.00 | 88 | 1013.7 |
| 20260510111523 | 47 | 12 | 0.0 | 0.0 | 0.00 | 0.15 | 0.00 | 88 | 1013.7 |
| 20260510111014 | 47 | 12 | 0.0 | 0.0 | 0.00 | 0.15 | 0.00 | 88 | 1013.7 |
| 20260510110510 | 47 | 12 | 0.0 | 0.0 | 0.00 | 0.15 | 0.00 | 89 | 1013.5 |
| 20260510110017 | 47 | 12 | 0.0 | 0.0 | 0.00 | 0.15 | 0.00 | 88 | 1013.2 |
| 20260510105504 | 47 | 12 | 0.0 | 0.0 | 0.00 | 0.15 | 0.00 | 89 | 1013.2 |
| 20260510105009 | 47 | 12 | 0.0 | 0.0 | 0.00 | 0.15 | 0.00 | 89 | 1013.2 |
| 20260510104513 | 46 | 12 | 0.0 | 0.0 | 0.00 | 0.15 | 0.00 | 89 | 1012.9 |
| 20260510104010 | 46 | 12 | 0.0 | 0.0 | 0.00 | 0.15 | 0.00 | 88 | 1013.1 |
| 20260510103508 | 46 | 12 | 0.0 | 0.0 | 0.00 | 0.15 | 0.00 | 88 | 1012.9 |
| 20260510103020 | 46 | 12 | 0.0 | 0.0 | 0.00 | 0.15 | 0.00 | 88 | 1012.8 |
| 20260510102507 | 46 | 12 | 0.0 | 0.0 | 0.00 | 0.15 | 0.00 | 88 | 1012.6 |
| 20260510102011 | 46 | 12 | 0.0 | 0.0 | 0.00 | 0.15 | 0.00 | 88 | 1012.0 |
| 20260510101522 | 46 | 12 | 0.0 | 0.0 | 0.00 | 0.15 | 0.00 | 88 | 1012.3 |
| 20260510101011 | 46 | 12 | 0.0 | 0.0 | 0.00 | 0.15 | 0.00 | 87 | 1012.3 |
| 20260510100510 | 46 | 12 | 0.0 | 0.0 | 0.00 | 0.15 | 0.00 | 87 | 1012.2 |
| 20260510100034 | 46 | 12 | 0.0 | 0.0 | 0.00 | 0.15 | 0.00 | 87 | 1012.4 |
| 20260510095508 | 46 | 12 | 0.0 | 0.0 | 0.00 | 0.15 | 0.00 | 87 | 1012.4 |
| 20260510095010 | 46 | 12 | 0.0 | 0.0 | 0.00 | 0.15 | 0.00 | 86 | 1012.2 |
| 20260510094518 | 46 | 12 | 0.0 | 0.0 | 0.00 | 0.15 | 0.00 | 86 | 1012.3 |
| 20260510093022 | 47 | 12 | 0.0 | 0.0 | 0.00 | 0.15 | 0.00 | 86 | 1012.0 |
| 20260510092510 | 47 | 12 | 0.0 | 0.0 | 0.00 | 0.15 | 0.00 | 86 | 1012.0 |
| 20260510092010 | 48 | 12 | 0.0 | 0.0 | 0.00 | 0.15 | 0.00 | 86 | 1011.9 |
| 20260510091521 | 48 | 12 | 0.0 | 0.0 | 0.00 | 0.15 | 0.00 | 85 | 1011.8 |
| 20260510091007 | 48 | 12 | 0.0 | 0.0 | 0.00 | 0.15 | 0.00 | 84 | 1011.8 |
| 20260510090511 | 48 | 12 | 0.0 | 0.0 | 0.00 | 0.15 | 0.00 | 84 | 1011.4 |
| 20260510090024 | 48 | 12 | 0.0 | 0.0 | 0.00 | 0.15 | 0.00 | 84 | 1011.3 |
| 20260510085509 | 48 | 12 | 0.0 | 0.0 | 0.00 | 0.15 | 0.00 | 84 | 1011.3 |
| 20260510085008 | 48 | 12 | 0.0 | 0.0 | 0.00 | 0.15 | 0.00 | 83 | 1011.3 |
| 20260510084532 | 48 | 12 | 0.0 | 0.0 | 0.00 | 0.16 | 0.00 | 83 | 1011.1 |
| 20260510084010 | 49 | 12 | 0.0 | 0.0 | 0.00 | 0.16 | 0.00 | 84 | 1010.9 |
| 20260510083515 | 49 | 12 | 0.0 | 0.9 | 0.00 | 0.16 | 0.00 | 84 | 1010.8 |
| 20260510083018 | 49 | 12 | 0.0 | 1.7 | 0.00 | 0.16 | 0.00 | 84 | 1010.8 |
| 20260510082507 | 49 | 12 | 0.0 | 2.6 | 0.00 | 0.16 | 0.00 | 84 | 1010.6 |
| 20260510081529 | 50 | 5 | 0.9 | 2.6 | 0.00 | 0.16 | 0.00 | 84 | 1010.6 |
| 20260510080514 | 50 | 11 | 0.9 | 4.3 | 0.00 | 0.16 | 0.00 | 85 | 1010.7 |
| 20260510080038 | 50 | 22 | 1.7 | 5.2 | 0.00 | 0.16 | 0.00 | 85 | 1010.5 |
| 20260510075507 | 51 | 352 | 1.7 | 5.2 | 0.00 | 0.16 | 0.00 | 86 | 1010.5 |
| 20260510075010 | 51 | 343 | 1.7 | 5.2 | 0.00 | 0.16 | 0.00 | 88 | 1010.4 |
| 20260510074527 | 52 | 5 | 1.7 | 3.5 | 0.00 | 0.16 | 0.00 | 88 | 1010.3 |
| 20260510074009 | 52 | 360 | 1.7 | 3.5 | 0.00 | 0.16 | 0.00 | 89 | 1010.2 |
| 20260510073509 | 53 | 10 | 0.9 | 3.5 | 0.00 | 0.16 | 0.00 | 90 | 1010.2 |
| 20260510073038 | 53 | 360 | 0.9 | 2.6 | 0.00 | 0.16 | 0.00 | 92 | 1010.1 |
| 20260510072509 | 53 | 352 | 0.0 | 3.5 | 0.00 | 0.17 | 0.00 | 92 | 1010.1 |
| 20260510072011 | 53 | 352 | 0.9 | 3.5 | 0.00 | 0.17 | 0.00 | 92 | 1010.1 |
| 20260510071519 | 53 | 5 | 0.0 | 0.9 | 0.00 | 0.18 | 0.00 | 91 | 1010.0 |
| 20260510071008 | 53 | 202 | 0.0 | 0.0 | 0.00 | 0.19 | 0.00 | 91 | 1010.0 |
| 20260510070507 | 53 | 202 | 0.0 | 0.0 | 0.00 | 0.19 | 0.00 | 91 | 1009.9 |
| 20260510070022 | 53 | 202 | 0.0 | 0.0 | 0.00 | 0.21 | 0.00 | 91 | 1009.7 |
| 20260510065510 | 53 | 202 | 0.0 | 0.0 | 0.00 | 0.22 | 0.00 | 91 | 1009.6 |
| 20260510065012 | 53 | 202 | 0.0 | 0.0 | 0.00 | 0.23 | 0.00 | 91 | 1009.6 |
| 20260510064524 | 53 | 202 | 0.0 | 0.0 | 0.00 | 0.24 | 0.00 | 91 | 1009.5 |
| 20260510064007 | 54 | 202 | 0.0 | 0.0 | 0.00 | 0.25 | 0.00 | 91 | 1009.4 |
| 20260510063508 | 54 | 202 | 0.0 | 0.0 | 0.00 | 0.25 | 0.00 | 91 | 1009.3 |
| 20260510063035 | 54 | 202 | 0.0 | 0.0 | 0.00 | 0.26 | 0.00 | 91 | 1009.2 |
| 20260510062512 | 54 | 202 | 0.0 | 0.0 | 0.00 | 0.26 | 0.00 | 91 | 1009.3 |
| 20260510062009 | 54 | 202 | 0.0 | 0.0 | 0.00 | 0.26 | 0.00 | 91 | 1009.2 |
| 20260510061526 | 54 | 202 | 0.0 | 0.0 | 0.00 | 0.26 | 0.00 | 91 | 1009.1 |
| 20260510061011 | 54 | 202 | 0.0 | 0.0 | 0.00 | 0.27 | 0.00 | 90 | 1009.0 |
| 20260510060510 | 54 | 202 | 0.0 | 0.0 | 0.00 | 0.27 | 0.00 | 90 | 1009.0 |
| 20260510060034 | 54 | 202 | 0.0 | 0.0 | 0.00 | 0.28 | 0.00 | 90 | 1008.8 |
| 20260510055508 | 54 | 202 | 0.0 | 0.0 | 0.00 | 0.29 | 0.00 | 90 | 1008.7 |
| 20260510055011 | 54 | 202 | 0.0 | 0.0 | 0.00 | 0.30 | 0.00 | 90 | 1008.7 |
| 20260510054523 | 54 | 202 | 0.0 | 0.0 | 0.00 | 0.31 | 0.00 | 89 | 1008.8 |
| 20260510054013 | 55 | 202 | 0.0 | 1.7 | 0.00 | 0.32 | 0.00 | 89 | 1008.6 |
| 20260510053511 | 55 | 202 | 0.0 | 1.7 | 0.00 | 0.33 | 0.00 | 90 | 1008.6 |
| 20260510053024 | 54 | 195 | 0.0 | 1.7 | 0.00 | 0.33 | 0.00 | 90 | 1008.5 |
| 20260510052511 | 54 | 195 | 0.9 | 1.7 | 0.00 | 0.34 | 0.00 | 90 | 1008.5 |
| 20260510052010 | 54 | 195 | 0.9 | 1.7 | 0.00 | 0.34 | 0.00 | 91 | 1008.5 |
| 20260510051527 | 54 | 188 | 0.9 | 2.6 | 0.00 | 0.34 | 0.00 | 91 | 1008.4 |
| 20260510051006 | 54 | 190 | 0.9 | 2.6 | 0.00 | 0.34 | 0.00 | 92 | 1008.4 |
| 20260510050508 | 54 | 192 | 0.9 | 2.6 | 0.00 | 0.34 | 0.00 | 92 | 1008.5 |
| 20260510050015 | 53 | 195 | 1.7 | 2.6 | 0.00 | 0.35 | 0.00 | 93 | 1008.5 |
| 20260510045503 | 53 | 189 | 0.9 | 2.6 | 0.00 | 0.36 | 0.00 | 93 | 1008.6 |
| 20260510045003 | 53 | 182 | 0.9 | 1.7 | 0.00 | 0.36 | 0.00 | 93 | 1008.6 |
| 20260510044504 | 53 | 182 | 0.0 | 1.7 | 0.00 | 0.37 | 0.00 | 93 | 1008.3 |
| 20260510044004 | 53 | 182 | 0.0 | 1.7 | 0.00 | 0.37 | 0.00 | 93 | 1008.3 |
| 20260510043506 | 53 | 182 | 0.0 | 1.7 | 0.00 | 0.37 | 0.00 | 93 | 1008.2 |
| 20260510043008 | 53 | 182 | 0.0 | 1.7 | 0.00 | 0.37 | 0.00 | 93 | 1008.2 |
| 20260510042502 | 53 | 182 | 0.0 | 1.7 | 0.00 | 0.38 | 0.00 | 92 | 1008.2 |
| 20260510042003 | 53 | 182 | 0.0 | 1.7 | 0.00 | 0.39 | 0.00 | 92 | 1008.2 |
| 20260510041512 | 53 | 182 | 0.0 | 1.7 | 0.00 | 0.39 | 0.00 | 91 | 1008.2 |
| 20260510041004 | 53 | 182 | 0.0 | 1.7 | 0.00 | 0.40 | 0.00 | 91 | 1008.2 |
| 20260510040509 | 54 | 182 | 0.0 | 1.7 | 0.00 | 0.40 | 0.00 | 91 | 1008.3 |
| 20260510040018 | 54 | 182 | 0.0 | 1.7 | 0.00 | 0.40 | 0.00 | 91 | 1008.2 |
| 20260510035507 | 54 | 182 | 0.0 | 1.7 | 0.00 | 0.41 | 0.40 | 91 | 1008.4 |
| 20260510035012 | 54 | 182 | 0.0 | 1.7 | 0.00 | 0.41 | 0.40 | 91 | 1008.2 |
| 20260510034519 | 54 | 182 | 0.9 | 1.7 | 0.00 | 0.41 | 0.40 | 91 | 1008.2 |
| 20260510034006 | 54 | 180 | 0.9 | 1.7 | 0.00 | 0.42 | 0.40 | 91 | 1008.0 |
| 20260510033504 | 54 | 180 | 0.9 | 1.7 | 0.00 | 0.42 | 0.40 | 90 | 1008.0 |
| 20260510033003 | 54 | 180 | 0.0 | 1.7 | 0.00 | 0.42 | 0.40 | 90 | 1008.0 |
| 20260510032503 | 55 | 180 | 0.9 | 1.7 | 0.00 | 0.42 | 0.40 | 90 | 1008.0 |
| 20260510032007 | 55 | 180 | 0.0 | 1.7 | 0.00 | 0.42 | 0.40 | 91 | 1008.0 |
| 20260510031509 | 55 | 180 | 0.0 | 1.7 | 0.00 | 0.42 | 0.40 | 91 | 1008.1 |
| 20260510031006 | 55 | 180 | 0.9 | 1.7 | 0.00 | 0.42 | 0.40 | 90 | 1008.0 |
| 20260510030505 | 55 | 198 | 0.0 | 0.0 | 0.00 | 0.43 | 0.40 | 90 | 1008.5 |
| 20260510030014 | 55 | 198 | 0.0 | 0.0 | 0.00 | 0.43 | 0.40 | 91 | 1008.2 |
| 20260510025511 | 55 | 198 | 0.0 | 1.7 | 0.00 | 0.43 | 0.40 | 91 | 1008.2 |
| 20260510025008 | 55 | 198 | 0.0 | 1.7 | 0.00 | 0.43 | 0.40 | 91 | 1008.2 |
| 20260510024521 | 55 | 198 | 0.9 | 2.6 | 0.00 | 0.43 | 0.40 | 91 | 1008.1 |
| 20260510024010 | 55 | 178 | 0.9 | 3.5 | 0.00 | 0.43 | 0.40 | 92 | 1008.1 |
| 20260510023506 | 55 | 178 | 1.7 | 3.5 | 0.00 | 0.43 | 0.40 | 92 | 1008.4 |
| 20260510023022 | 55 | 190 | 0.9 | 2.6 | 0.00 | 0.43 | 0.40 | 92 | 1008.3 |
| 20260510022503 | 54 | 183 | 0.9 | 1.7 | 0.00 | 0.43 | 0.40 | 92 | 1008.1 |
| 20260510022002 | 54 | 194 | 0.0 | 0.0 | 0.00 | 0.43 | 0.40 | 91 | 1008.1 |
| 20260510021519 | 54 | 194 | 0.0 | 0.0 | 0.00 | 0.44 | 0.40 | 91 | 1008.0 |
| 20260510021006 | 54 | 194 | 0.0 | 0.0 | 0.00 | 0.44 | 0.40 | 91 | 1007.8 |
| 20260510020505 | 55 | 194 | 0.0 | 0.0 | 0.00 | 0.44 | 0.40 | 91 | 1007.7 |
| 20260510020012 | 55 | 194 | 0.0 | 0.0 | 0.00 | 0.44 | 0.40 | 91 | 1007.7 |
| 20260510015506 | 55 | 175 | 0.0 | 0.0 | 0.00 | 0.44 | 0.40 | 91 | 1007.6 |
| 20260510015006 | 55 | 175 | 0.0 | 0.0 | 0.00 | 0.44 | 0.40 | 91 | 1007.6 |
| 20260510014530 | 54 | 175 | 0.0 | 0.0 | 0.00 | 0.44 | 0.40 | 91 | 1007.5 |
| 20260510014008 | 54 | 175 | 0.0 | 0.0 | 0.00 | 0.44 | 0.40 | 91 | 1007.3 |
| 20260510013510 | 54 | 175 | 0.0 | 0.0 | 0.01 | 0.44 | 0.40 | 90 | 1007.2 |
| 20260510013018 | 55 | 175 | 0.0 | 0.0 | 0.01 | 0.45 | 0.40 | 90 | 1007.1 |
| 20260510012511 | 55 | 175 | 0.0 | 0.0 | 0.01 | 0.45 | 0.40 | 91 | 1007.0 |
| 20260510012014 | 55 | 175 | 0.0 | 0.0 | 0.01 | 0.45 | 0.40 | 91 | 1007.0 |
| 20260510011525 | 55 | 175 | 0.0 | 0.0 | 0.01 | 0.45 | 0.40 | 91 | 1006.9 |
| 20260510011003 | 55 | 175 | 0.0 | 0.0 | 0.01 | 0.45 | 0.40 | 91 | 1006.8 |
| 20260510010504 | 55 | 175 | 0.0 | 0.0 | 0.01 | 0.45 | 0.40 | 90 | 1006.7 |
| 20260510010019 | 55 | 175 | 0.0 | 0.0 | 0.02 | 0.45 | 0.40 | 90 | 1006.7 |
| 20260510005507 | 55 | 175 | 0.0 | 0.0 | 0.04 | 0.45 | 0.40 | 90 | 1006.7 |
| 20260510005006 | 55 | 175 | 0.0 | 0.0 | 0.08 | 0.46 | 0.40 | 90 | 1006.8 |
| 20260510004511 | 55 | 175 | 0.0 | 1.7 | 0.14 | 0.46 | 0.40 | 90 | 1006.7 |
| 20260510004006 | 55 | 163 | 0.0 | 2.6 | 0.14 | 0.46 | 0.40 | 90 | 1006.8 |
| 20260510003506 | 55 | 160 | 0.9 | 2.6 | 0.13 | 0.45 | 0.39 | 90 | 1007.1 |
| 20260510003023 | 55 | 189 | 0.0 | 0.9 | 0.13 | 0.45 | 0.39 | 90 | 1007.2 |
| 20260510002506 | 55 | 167 | 0.0 | 0.0 | 0.14 | 0.45 | 0.39 | 90 | 1007.0 |
| 20260510002010 | 55 | 163 | 0.0 | 1.7 | 0.14 | 0.46 | 0.39 | 90 | 1007.0 |
| 20260510001520 | 55 | 149 | 0.0 | 1.7 | 0.14 | 0.46 | 0.39 | 89 | 1007.1 |
| 20260510001014 | 56 | 148 | 0.0 | 1.7 | 0.14 | 0.46 | 0.39 | 88 | 1007.1 |
| 20260510000511 | 56 | 199 | 0.0 | 2.6 | 0.14 | 0.46 | 0.39 | 87 | 1007.4 |
| 20260510000026 | 56 | 137 | 0.0 | 2.6 | 0.13 | 0.45 | 0.38 | 87 | 1007.6 |
| 20260509235504 | 57 | 302 | 0.9 | 3.5 | 0.11 | 0.44 | 0.36 | 85 | 1007.5 |
| 20260509235004 | 58 | 325 | 0.9 | 3.5 | 0.07 | 0.40 | 0.32 | 83 | 1007.2 |
| 20260509234512 | 59 | 306 | 1.7 | 3.5 | 0.01 | 0.35 | 0.26 | 79 | 1007.2 |
| 20260509234006 | 60 | 311 | 0.9 | 3.5 | 0.01 | 0.35 | 0.26 | 76 | 1006.7 |
| 20260509233506 | 62 | 5 | 0.9 | 4.3 | 0.01 | 0.35 | 0.26 | 73 | 1006.7 |
| 20260509233017 | 64 | 317 | 0.9 | 4.3 | 0.01 | 0.36 | 0.26 | 70 | 1006.5 |
| 20260509232506 | 66 | 333 | 0.9 | 2.6 | 0.00 | 0.36 | 0.25 | 65 | 1005.9 |
| 20260509232008 | 66 | 194 | 0.9 | 3.5 | 0.00 | 0.37 | 0.25 | 60 | 1004.9 |
| 20260509231522 | 67 | 174 | 1.7 | 5.2 | 0.00 | 0.38 | 0.25 | 60 | 1004.7 |
| 20260509231008 | 67 | 174 | 0.9 | 5.2 | 0.00 | 0.38 | 0.25 | 60 | 1004.9 |
| 20260509230508 | 67 | 171 | 3.5 | 5.2 | 0.00 | 0.38 | 0.25 | 60 | 1004.8 |
| 20260509230031 | 66 | 188 | 1.7 | 3.5 | 0.00 | 0.38 | 0.25 | 61 | 1004.7 |
| 20260509225509 | 67 | 187 | 1.7 | 4.3 | 0.00 | 0.38 | 0.25 | 60 | 1004.6 |
| 20260509225009 | 67 | 185 | 1.7 | 6.1 | 0.00 | 0.38 | 0.25 | 58 | 1004.6 |
| 20260509224525 | 67 | 200 | 3.5 | 6.1 | 0.00 | 0.38 | 0.25 | 58 | 1004.6 |
| 20260509224006 | 68 | 207 | 2.6 | 6.1 | 0.00 | 0.38 | 0.25 | 58 | 1004.5 |
| 20260509223505 | 68 | 191 | 2.6 | 7.0 | 0.00 | 0.38 | 0.25 | 57 | 1004.5 |
| 20260509223012 | 68 | 202 | 4.3 | 7.0 | 0.00 | 0.38 | 0.25 | 57 | 1004.6 |
| 20260509222509 | 68 | 196 | 3.5 | 6.1 | 0.00 | 0.38 | 0.25 | 61 | 1004.6 |
| 20260509222008 | 68 | 186 | 3.5 | 6.1 | 0.00 | 0.38 | 0.25 | 59 | 1004.6 |
| 20260509221516 | 68 | 163 | 2.6 | 9.6 | 0.00 | 0.38 | 0.25 | 58 | 1004.6 |
| 20260509221007 | 68 | 188 | 4.3 | 9.6 | 0.00 | 0.38 | 0.25 | 56 | 1004.5 |
| 20260509220508 | 68 | 189 | 2.6 | 7.0 | 0.00 | 0.38 | 0.25 | 56 | 1004.6 |
| 20260509220021 | 68 | 187 | 2.6 | 7.0 | 0.00 | 0.38 | 0.25 | 57 | 1004.6 |
| 20260509215511 | 68 | 180 | 3.5 | 7.0 | 0.00 | 0.38 | 0.25 | 59 | 1004.7 |
| 20260509215012 | 68 | 184 | 3.5 | 6.1 | 0.00 | 0.38 | 0.25 | 60 | 1004.6 |
| 20260509214526 | 68 | 167 | 2.6 | 13.0 | 0.00 | 0.38 | 0.25 | 60 | 1004.6 |
| 20260509214013 | 68 | 182 | 7.0 | 13.0 | 0.00 | 0.38 | 0.25 | 57 | 1004.5 |
| 20260509213510 | 68 | 197 | 4.3 | 8.7 | 0.00 | 0.38 | 0.25 | 59 | 1004.5 |
| 20260509213028 | 68 | 179 | 5.2 | 8.7 | 0.00 | 0.38 | 0.25 | 59 | 1004.5 |
| 20260509212506 | 68 | 184 | 4.3 | 10.4 | 0.00 | 0.38 | 0.25 | 59 | 1004.6 |
| 20260509212009 | 68 | 203 | 3.5 | 10.4 | 0.00 | 0.38 | 0.25 | 59 | 1004.6 |
| 20260509211515 | 67 | 185 | 3.5 | 7.8 | 0.00 | 0.38 | 0.25 | 60 | 1004.6 |
| 20260509211008 | 68 | 186 | 1.7 | 7.0 | 0.00 | 0.38 | 0.25 | 62 | 1004.7 |
| 20260509210507 | 68 | 192 | 3.5 | 7.0 | 0.00 | 0.38 | 0.25 | 59 | 1004.8 |
| 20260509210020 | 67 | 180 | 2.6 | 7.0 | 0.00 | 0.38 | 0.25 | 59 | 1005.0 |
| 20260509205508 | 67 | 202 | 4.3 | 7.0 | 0.00 | 0.38 | 0.25 | 57 | 1005.1 |
| 20260509205009 | 67 | 190 | 3.5 | 7.0 | 0.00 | 0.38 | 0.25 | 59 | 1005.3 |
| 20260509204525 | 67 | 161 | 2.6 | 6.1 | 0.00 | 0.38 | 0.25 | 61 | 1005.2 |
| 20260509204009 | 67 | 167 | 2.6 | 8.7 | 0.00 | 0.38 | 0.25 | 60 | 1005.3 |
| 20260509203511 | 67 | 220 | 4.3 | 8.7 | 0.00 | 0.38 | 0.25 | 59 | 1005.4 |
| 20260509203027 | 67 | 183 | 2.6 | 8.7 | 0.00 | 0.38 | 0.25 | 61 | 1005.3 |
| 20260509202510 | 67 | 186 | 3.5 | 8.7 | 0.00 | 0.38 | 0.25 | 63 | 1005.4 |
| 20260509202009 | 67 | 204 | 4.3 | 7.8 | 0.00 | 0.38 | 0.25 | 60 | 1005.4 |
| 20260509201528 | 67 | 187 | 5.2 | 7.0 | 0.00 | 0.39 | 0.25 | 61 | 1005.5 |
| 20260509201007 | 67 | 171 | 3.5 | 7.8 | 0.00 | 0.39 | 0.25 | 59 | 1005.6 |
| 20260509200506 | 67 | 206 | 4.3 | 7.0 | 0.00 | 0.39 | 0.25 | 63 | 1005.7 |
| 20260509200019 | 67 | 185 | 3.5 | 7.0 | 0.00 | 0.39 | 0.25 | 62 | 1005.9 |
| 20260509195510 | 67 | 157 | 3.5 | 7.0 | 0.00 | 0.39 | 0.25 | 66 | 1005.9 |
| 20260509195006 | 67 | 201 | 2.6 | 7.0 | 0.00 | 0.39 | 0.25 | 60 | 1005.9 |
| 20260509194532 | 67 | 182 | 3.5 | 7.8 | 0.00 | 0.39 | 0.25 | 63 | 1005.9 |
| 20260509194014 | 66 | 179 | 3.5 | 10.4 | 0.00 | 0.39 | 0.25 | 64 | 1005.9 |
| 20260509193512 | 66 | 155 | 3.5 | 10.4 | 0.00 | 0.39 | 0.25 | 65 | 1006.0 |
| 20260509193025 | 66 | 198 | 2.6 | 7.8 | 0.00 | 0.40 | 0.25 | 66 | 1006.0 |
| 20260509192512 | 66 | 189 | 1.7 | 6.1 | 0.00 | 0.40 | 0.25 | 65 | 1006.1 |
| 20260509192010 | 66 | 150 | 3.5 | 5.2 | 0.00 | 0.40 | 0.25 | 67 | 1006.1 |
| 20260509191528 | 66 | 170 | 3.5 | 5.2 | 0.00 | 0.41 | 0.25 | 68 | 1006.3 |
| 20260509190509 | 65 | 180 | 2.6 | 7.8 | 0.00 | 0.41 | 0.25 | 65 | 1006.4 |
| 20260509190027 | 65 | 192 | 3.5 | 7.8 | 0.00 | 0.41 | 0.25 | 64 | 1006.5 |
| 20260509185509 | 65 | 169 | 4.3 | 7.8 | 0.00 | 0.41 | 0.25 | 65 | 1006.5 |
| 20260509185007 | 65 | 179 | 3.5 | 7.8 | 0.00 | 0.41 | 0.25 | 66 | 1006.5 |
| 20260509184519 | 65 | 204 | 2.6 | 7.0 | 0.00 | 0.41 | 0.25 | 62 | 1006.6 |
| 20260509184007 | 65 | 174 | 2.6 | 6.1 | 0.00 | 0.41 | 0.25 | 62 | 1006.5 |
| 20260509183508 | 65 | 175 | 2.6 | 5.2 | 0.00 | 0.41 | 0.25 | 64 | 1006.4 |
| 20260509183021 | 65 | 190 | 2.6 | 5.2 | 0.00 | 0.41 | 0.25 | 62 | 1006.5 |
| 20260509182511 | 65 | 209 | 1.7 | 5.2 | 0.00 | 0.41 | 0.25 | 65 | 1006.5 |
| 20260509182009 | 65 | 172 | 2.6 | 5.2 | 0.00 | 0.41 | 0.25 | 62 | 1006.5 |
| 20260509181525 | 66 | 192 | 3.5 | 6.1 | 0.00 | 0.41 | 0.25 | 63 | 1006.6 |
| 20260509180510 | 65 | 180 | 2.6 | 7.0 | 0.00 | 0.42 | 0.25 | 67 | 1006.6 |
| 20260509180027 | 65 | 173 | 1.7 | 7.0 | 0.00 | 0.42 | 0.25 | 66 | 1006.6 |
| 20260509175512 | 65 | 178 | 4.3 | 7.0 | 0.00 | 0.43 | 0.25 | 67 | 1006.5 |
| 20260509175010 | 65 | 169 | 2.6 | 6.1 | 0.00 | 0.43 | 0.25 | 67 | 1006.7 |
| 20260509174527 | 65 | 247 | 2.6 | 6.1 | 0.00 | 0.43 | 0.25 | 65 | 1006.8 |
| 20260509174008 | 65 | 182 | 2.6 | 5.2 | 0.00 | 0.43 | 0.25 | 67 | 1006.9 |
| 20260509173508 | 64 | 182 | 1.7 | 5.2 | 0.00 | 0.43 | 0.25 | 69 | 1006.9 |
| 20260509173029 | 64 | 177 | 2.6 | 5.2 | 0.00 | 0.43 | 0.25 | 67 | 1006.9 |
| 20260509172511 | 64 | 195 | 1.7 | 7.0 | 0.00 | 0.43 | 0.25 | 70 | 1006.8 |
| 20260509172011 | 63 | 173 | 1.7 | 7.0 | 0.00 | 0.43 | 0.25 | 70 | 1006.7 |
| 20260509171531 | 64 | 168 | 2.6 | 6.1 | 0.00 | 0.43 | 0.25 | 69 | 1006.8 |
| 20260509171007 | 63 | 172 | 2.6 | 5.2 | 0.00 | 0.43 | 0.25 | 72 | 1006.7 |
| 20260509170505 | 63 | 182 | 2.6 | 6.1 | 0.00 | 0.43 | 0.25 | 72 | 1006.8 |
| 20260509170015 | 63 | 167 | 3.5 | 6.1 | 0.00 | 0.43 | 0.25 | 69 | 1006.8 |
| 20260509165507 | 63 | 184 | 1.7 | 5.2 | 0.00 | 0.43 | 0.25 | 70 | 1006.9 |
| 20260509165010 | 63 | 172 | 2.6 | 6.1 | 0.00 | 0.43 | 0.25 | 70 | 1006.9 |
| 20260509164517 | 63 | 180 | 2.6 | 6.1 | 0.00 | 0.43 | 0.25 | 69 | 1007.0 |
| 20260509164008 | 62 | 174 | 2.6 | 5.2 | 0.00 | 0.43 | 0.25 | 73 | 1007.1 |
| 20260509163508 | 63 | 198 | 1.7 | 4.3 | 0.00 | 0.43 | 0.25 | 67 | 1007.1 |
| 20260509163019 | 64 | 196 | 1.7 | 4.3 | 0.00 | 0.43 | 0.25 | 73 | 1007.1 |
| 20260509162509 | 63 | 242 | 0.0 | 2.6 | 0.00 | 0.43 | 0.25 | 72 | 1007.1 |
| 20260509162009 | 62 | 153 | 0.9 | 3.5 | 0.00 | 0.43 | 0.25 | 74 | 1007.2 |
| 20260509161519 | 62 | 204 | 1.7 | 4.3 | 0.00 | 0.43 | 0.25 | 72 | 1007.1 |
| 20260509161004 | 62 | 157 | 2.6 | 4.3 | 0.00 | 0.43 | 0.25 | 75 | 1007.1 |
| 20260509160504 | 62 | 291 | 0.9 | 4.3 | 0.00 | 0.43 | 0.25 | 76 | 1007.2 |
| 20260509160008 | 61 | 186 | 0.9 | 3.5 | 0.00 | 0.43 | 0.25 | 77 | 1007.1 |
| 20260509155503 | 61 | 175 | 0.9 | 3.5 | 0.00 | 0.43 | 0.25 | 80 | 1007.2 |
| 20260509155003 | 60 | 194 | 1.7 | 3.5 | 0.00 | 0.43 | 0.25 | 78 | 1007.1 |
| 20260509154516 | 60 | 219 | 0.9 | 4.3 | 0.00 | 0.43 | 0.25 | 80 | 1007.2 |
| 20260509154011 | 60 | 180 | 1.7 | 3.5 | 0.00 | 0.43 | 0.25 | 79 | 1007.1 |